Paso Robles, CA

5:33 AM PDT on March 25, 2017 (GMT -0700)
Paso Robles Municipal

Weather History for KPRB - April, 2013

Change the Weather History Date:

Monday, April 15, 2013

  Actual Average Record
Temperature  
Mean Temperature 55 °F 56 °F  
Max Temperature 68 °F 72 °F 94 °F (1966)
Min Temperature 42 °F 41 °F 30 °F (1970)
Degree Days  
Heating Degree Days 10 9  
Month to date heating degree days 50 147  
Since 1 July heating degree days 2299 2606  
Cooling Degree Days 0 0  
Month to date cooling degree days 1 0  
Year to date cooling degree days 1 0  
Growing Degree Days 6 (Base 50)    
Moisture  
Dew Point 37 °F    
Average Humidity 57    
Maximum Humidity 92    
Minimum Humidity 22    
Precipitation  
Precipitation 0.00 in 0.02 in 1.12 in (1978)
Month to date precipitation 0.01 0.42  
Year to date precipitation 1.41 8.25  
Since 1 July precipitation 4.62  
Sea Level Pressure  
Sea Level Pressure 29.88 in    
Wind  
Wind Speed 12 mph (NW)    
Max Wind Speed 28 mph    
Max Gust Speed 37 mph    
Visibility 10 miles    
Events      
T = Trace of Precipitation, MM = Missing Value Source: NWS Daily Summary

Daily Weather History Graph

Daily Weather History Graph

Search for Another Location

Airport or City:

Trip Planner

Search our weather history database for the weather conditions in past years. The results will help you decide how hot, cold, wet, or windy it might be!

Date:

Astronomy

Apr. 15, 2013 Rise Set
Actual Time 6:29 AM PDT 7:36 PM PDT
Civil Twilight 6:03 AM PDT 8:02 PM PDT
Nautical Twilight 5:31 AM PDT 8:33 PM PDT
Astronomical Twilight 4:59 AM PDT 9:06 PM PDT
Moon 10:05 AM PDT (4/15) No Moon Set
Length of Visible Light 13h 59m
Length of Day
13h 06m
Waxing Crescent, 25% of the Moon is Illuminated
Apr 15
Waxing Crescent
Apr 18
First Quarter
Apr 25
Full
May 2
Last Quarter
May 9
New

Hourly Weather History & Observations

Time (PDT) Temp. Windchill Dew Point Humidity Pressure Visibility Wind Dir Wind Speed Gust Speed Precip Events Conditions
12:53 AM 50.0 °F - 41.0 °F 71% 29.87 in 10.0 mi NW 8.1 mph - N/A   Clear
1:53 AM 48.0 °F - 41.0 °F 77% 29.88 in 10.0 mi NNW 9.2 mph - N/A   Clear
2:53 AM 48.0 °F - 42.1 °F 80% 29.87 in 10.0 mi NW 10.4 mph - N/A   Clear
3:53 AM 46.9 °F - 42.1 °F 83% 29.86 in 10.0 mi Calm Calm - N/A   Clear
4:53 AM 45.0 °F - 41.0 °F 86% 29.87 in 10.0 mi Calm Calm - N/A   Clear
5:35 AM 44.6 °F - 42.8 °F 93% 29.88 in 10.0 mi Calm Calm - N/A   Mostly Cloudy
5:45 AM 46.4 °F - 42.8 °F 87% 29.87 in 10.0 mi Calm Calm - N/A   Mostly Cloudy
5:53 AM 45.0 °F - 42.1 °F 90% 29.87 in 10.0 mi Calm Calm - N/A   Mostly Cloudy
6:08 AM 44.6 °F 43.1 °F 41.0 °F 87% 29.87 in 10.0 mi SSE 3.5 mph - N/A   Overcast
6:53 AM 46.9 °F - 42.1 °F 83% 29.87 in 10.0 mi Calm Calm - N/A   Overcast
7:53 AM 50.0 °F - 44.1 °F 80% 29.89 in 10.0 mi Variable 5.8 mph - N/A   Overcast
8:26 AM 51.8 °F - 46.4 °F 82% 29.90 in 10.0 mi NW 9.2 mph - N/A   Overcast
8:48 AM 53.6 °F - 44.6 °F 72% 29.90 in 10.0 mi NNW 13.8 mph - N/A   Overcast
8:53 AM 53.1 °F - 44.1 °F 71% 29.89 in 10.0 mi NNW 11.5 mph - N/A   Mostly Cloudy
9:53 AM 55.0 °F - 43.0 °F 64% 29.90 in 10.0 mi NW 15.0 mph - N/A   Mostly Cloudy
10:53 AM 59.0 °F - 39.9 °F 49% 29.90 in 10.0 mi NW 13.8 mph 21.9 mph N/A   Partly Cloudy
11:53 AM 61.0 °F - 37.9 °F 42% 29.89 in 10.0 mi NNW 13.8 mph 20.7 mph N/A   Clear
12:53 PM 63.0 °F - 32.0 °F 31% 29.88 in 10.0 mi WNW 12.7 mph 17.3 mph N/A   Clear
1:53 PM 66.9 °F - 27.0 °F 22% 29.86 in 10.0 mi NNW 12.7 mph - N/A   Clear
2:53 PM 66.9 °F - 30.0 °F 25% 29.83 in 10.0 mi WNW 8.1 mph - N/A   Clear
3:53 PM 66.9 °F - 33.1 °F 28% 29.82 in 10.0 mi NW 16.1 mph 20.7 mph N/A   Clear
4:02 PM 68.0 °F - 32.0 °F 26% 29.83 in 10.0 mi NW 20.7 mph 27.6 mph N/A   Clear
4:53 PM 64.0 °F - 27.0 °F 25% 29.83 in 10.0 mi NNW 21.9 mph 31.1 mph N/A   Clear
5:53 PM 61.0 °F - 24.1 °F 24% 29.83 in 10.0 mi NW 24.2 mph - N/A   Clear
6:53 PM 55.9 °F - 27.0 °F 33% 29.84 in 10.0 mi NW 20.7 mph 29.9 mph N/A   Clear
7:53 PM 50.0 °F - 26.1 °F 39% 29.87 in 10.0 mi NNW 25.3 mph 36.8 mph N/A   Clear
8:53 PM 46.9 °F - 28.9 °F 50% 29.91 in 10.0 mi NW 19.6 mph 27.6 mph N/A   Clear
9:53 PM 46.0 °F 38.5 °F 30.0 °F 54% 29.92 in 10.0 mi NNW 19.6 mph 25.3 mph N/A   Clear
10:53 PM 44.1 °F 37.7 °F 30.9 °F 60% 29.94 in 10.0 mi NNW 12.7 mph 23.0 mph N/A   Clear
11:53 PM 43.0 °F 36.4 °F 30.9 °F 62% 29.94 in 10.0 mi NW 12.7 mph - N/A   Clear